Temp
83 85 87 86 83 82 81 79 77 77 77 76 75 75 74 74 71 73 72 72 72 70 70 70 71 70 69 69 69 68 69 70
81 79 86 85 82 80 80 79 76 77 75 75 72 74 71 72 72 72 71 71 70 69 69 69 69 69 68 68 68 68 68 69
79 78 78 82 81 80 79 79 77 78 77 78 77 75 72 72 72 71 72 71 72 70 69 69 68 68 68 67 68 66 67 65
83 79 79 82 81 79 79 79 78 78 78 78 72 72 70 70 70 72 71 72 72 73 70 68 68 69 67 66 66 66 63 64
84 83 78 77 80 81 80 80 79 78 77 76 74 74 71 73 74 73 73 72 72 73 72 70 67 67 66 66 66 65 64 62
78 84 80 81 81 81 80 79 78 78 76 76 74 74 75 75 74 72 72 71 72 72 71 68 67 68 67 66 65 65 64 63
81 79 75 82 75 80 80 77 76 77 75 75 74 74 74 72 72 71 70 70 71 70 70 70 70 67 67 66 64 64 63 63
74 75 77 76 76 77 79 77 75 75 74 74 74 74 74 73 72 72 70 69 69 68 70 69 68 66 65 65 64 63 62 61
77 79 78 80 77 79 77 77 76 76 74 73 75 75 75 75 74 73 71 69 69 70 70 67 65 65 65 64 63 61 60 56
82 80 83 83 75 78 78 76 78 77 75 74 75 76 75 74 73 73 71 70 69 68 68 65 65 64 64 62 60 58 57 54
70 74 82 83 85 77 77 78 78 78 76 76 75 76 76 75 72 70 69 69 68 67 66 65 65 65 62 60 57 56 56 52
78 72 71 72 76 73 74 74 77 76 75 76 74 73 74 70 71 69 68 67 66 66 65 64 64 62 61 59 56 55 53 51
73 70 69 70 68 66 72 72 73 75 72 74 74 72 70 68 67 67 67 66 66 65 64 64 62 60 59 58 56 54 52 50
66 67 67 67 66 65 66 68 70 68 70 72 71 69 68 68 66 65 65 65 65 64 63 61 60 58 57 57 54 52 52 51
63 62 63 65 64 63 63 63 64 65 65 66 69 69 68 67 65 65 65 64 63 62 61 60 59 58 57 55 54 51 50 49
65 62 62 63 62 61 61 60 61 61 62 64 64 66 66 65 64 63 63 63 62 61 59 58 57 56 56 54 53 50 48 46
64 65 66 65 64 60 60 58 59 60 61 59 61 63 62 62 62 61 61 61 59 58 57 56 54 56 47 47 49 47 47 43
65 64 63 64 63 62 59 58 58 58 58 58 59 60 60 60 61 60 59 57 56 56 55 54 54 50 44 44 43 45 42 38
63 64 63 62 63 61 59 58 57 56 57 57 57 58 59 59 59 58 57 56 55 54 54 51 48 48 43 42 41 40 38 37
MSLP
1000.25 1000.80 1001.32 1002.23 1003.24 1004.09 1005.01 1006.00 1007.13 1008.33 1009.19 1009.85 1010.48 1010.75 1011.37 1011.55 1012.11 1012.37 1012.95 1013.58 1014.07 1014.50 1014.99 1015.26 1015.56 1016.25 1016.70 1016.87 1017.26 1017.69 1017.94 1018.13
999.45 999.90 1000.63 1001.54 1002.45 1003.39 1004.29 1005.22 1006.11 1007.37 1008.39 1009.01 1009.69 1009.91 1010.70 1011.20 1011.62 1011.94 1012.40 1012.82 1013.50 1014.16 1014.62 1015.05 1015.29 1015.81 1016.32 1016.73 1017.14 1017.55 1017.93 1018.08
998.86 999.25 999.97 1000.63 1001.55 1002.46 1003.39 1004.13 1005.23 1005.94 1006.91 1007.72 1008.72 1009.45 1010.26 1010.77 1011.32 1011.64 1012.06 1012.54 1012.92 1013.55 1014.21 1014.56 1014.96 1015.43 1015.91 1016.36 1016.78 1017.41 1017.79 1018.03
998.08 998.60 999.18 999.86 1000.69 1001.43 1002.23 1003.19 1004.09 1004.97 1005.91 1007.36 1008.43 1009.31 1010.10 1010.74 1011.03 1011.02 1011.30 1011.77 1012.31 1012.75 1013.44 1014.08 1014.53 1014.90 1015.46 1015.96 1016.41 1016.92 1017.74 1018.10
997.09 997.64 998.25 998.94 999.46 1000.17 1001.11 1002.14 1003.16 1004.10 1005.28 1006.32 1007.18 1007.62 1008.10 1008.35 1009.03 1010.11 1010.66 1011.14 1011.64 1012.11 1012.66 1013.32 1013.95 1014.43 1014.97 1015.46 1015.97 1016.46 1017.15 1017.90
996.25 996.54 996.99 997.65 998.35 999.12 1000.20 1001.17 1002.18 1003.15 1004.15 1004.87 1006.00 1007.03 1007.21 1008.01 1008.91 1009.49 1010.21 1010.75 1011.01 1011.40 1012.03 1012.79 1013.44 1013.90 1014.34 1014.97 1015.58 1016.05 1016.53 1017.34
995.46 995.25 995.90 996.69 997.57 998.29 999.48 1000.46 1001.50 1002.42 1003.29 1004.07 1004.80 1005.67 1006.65 1007.38 1008.03 1008.71 1009.24 1009.86 1010.58 1010.92 1011.38 1012.10 1012.80 1013.55 1014.02 1014.51 1015.08 1015.76 1016.44 1016.96
994.96 994.93 995.13 995.86 996.82 997.62 998.51 999.58 1000.61 1001.45 1002.37 1003.18 1003.71 1004.45 1005.54 1006.25 1006.96 1007.60 1008.36 1009.20 1009.78 1010.24 1010.64 1011.41 1012.20 1013.02 1013.64 1014.18 1014.83 1015.36 1016.00 1016.91
993.88 993.94 994.13 994.69 995.49 996.33 997.18 998.15 999.04 999.98 1001.00 1001.83 1002.48 1003.21 1004.22 1005.18 1006.03 1006.83 1007.51 1007.99 1008.80 1009.44 1010.09 1010.93 1011.82 1012.64 1013.31 1014.08 1014.80 1015.63 1016.37 1016.78
992.35 992.95 992.97 993.38 994.14 994.89 995.88 996.86 997.66 998.48 999.44 1000.51 1001.30 1002.09 1002.97 1003.92 1004.86 1005.76 1006.78 1007.52 1008.21 1009.00 1009.78 1010.58 1011.34 1012.22 1013.13 1014.04 1014.80 1015.76 1016.22 1016.74
991.88 992.05 992.17 992.27 992.72 993.76 994.71 995.43 996.25 997.24 998.29 999.20 999.99 1000.62 1001.58 1002.67 1003.98 1005.15 1005.79 1006.66 1007.62 1008.61 1009.56 1010.38 1011.04 1011.84 1012.74 1013.82 1014.85 1015.61 1015.83 1016.86
991.08 991.47 991.85 991.70 992.12 993.01 994.08 994.97 995.75 996.59 997.49 998.47 999.47 1000.36 1001.22 1002.43 1003.37 1004.14 1005.17 1006.26 1007.30 1008.18 1009.13 1010.03 1010.78 1011.50 1012.32 1013.44 1014.50 1015.35 1016.05 1016.85
990.31 990.71 991.29 991.85 992.12 992.64 993.46 994.36 995.02 995.68 996.48 997.47 998.61 999.70 1001.11 1001.97 1002.84 1003.76 1004.91 1005.82 1006.87 1007.87 1008.58 1009.52 1010.75 1011.45 1012.40 1013.14 1014.24 1015.09 1015.86 1016.83
990.76 990.60 991.09 991.70 992.17 992.82 993.46 994.12 994.77 995.35 996.15 996.98 998.12 999.34 1000.24 1001.42 1002.43 1003.54 1004.61 1005.55 1006.55 1007.44 1008.13 1008.85 1009.97 1011.20 1012.33 1013.09 1013.91 1015.03 1016.21 1016.89
991.20 991.46 991.80 992.39 992.89 993.14 993.70 994.42 994.81 995.28 996.15 996.95 997.73 998.58 999.62 1000.72 1001.67 1002.96 1004.07 1005.21 1006.22 1007.08 1008.06 1008.93 1010.06 1011.37 1012.26 1013.22 1014.21 1014.98 1016.40 1017.25
992.07 992.42 992.36 992.79 993.79 994.36 994.79 995.27 995.64 995.82 996.31 996.94 997.77 998.42 999.49 1000.38 1001.46 1002.75 1003.90 1004.85 1005.82 1006.76 1007.85 1009.02 1009.91 1011.18 1012.30 1013.24 1014.26 1015.38 1016.31 1017.55
993.09 992.82 992.91 993.57 994.29 995.03 995.58 996.12 996.67 996.89 997.51 998.06 998.50 999.00 999.59 1000.33 1001.34 1002.65 1003.67 1004.71 1006.07 1007.17 1007.96 1008.59 1009.67 1010.86 1012.05 1013.51 1014.45 1015.76 1016.47 1017.67
993.94 993.60 993.74 993.81 994.39 995.07 995.85 996.54 997.13 997.84 998.58 999.20 999.48 999.76 1000.07 1000.56 1001.41 1002.20 1003.42 1004.53 1005.85 1006.95 1008.14 1008.93 1010.12 1011.31 1012.05 1013.05 1014.70 1015.99 1016.80 1017.81
994.64 994.45 994.33 994.17 994.44 995.08 996.02 996.84 997.44 998.11 998.88 999.35 1000.04 1000.06 1000.49 1000.80 1001.42 1002.26 1003.35 1004.42 1005.28 1006.59 1007.82 1008.83 1009.63 1010.80 1012.15 1013.30 1014.54 1016.15 1017.08 1018.10
Wind_Speed
13 18 17 23 23 24 23 18 22 20 13 9 8 8 8 9 8 9 12 8 7 6 5 6 6 5 4 3 3 2 3 4
11 12 18 22 23 23 24 22 21 17 13 13 8 13 8 8 7 11 11 9 7 7 5 6 6 6 6 5 4 5 3 2
11 11 14 19 25 24 24 24 21 19 15 14 9 9 6 7 6 8 10 11 11 8 7 7 7 5 7 6 5 3 2 3
16 13 16 18 26 25 25 25 24 21 20 12 6 5 4 6 10 11 11 14 13 14 10 7 8 8 7 5 6 7 4 1
19 17 15 17 24 25 26 26 25 21 21 17 20 15 14 13 11 9 11 15 15 15 13 10 8 6 7 6 5 5 5 4
16 20 17 20 21 23 24 25 25 23 23 22 18 17 14 9 10 12 13 13 16 15 14 11 8 7 8 8 6 6 5 5
16 15 12 19 14 21 22 24 23 22 22 22 23 23 16 12 14 12 12 12 12 14 14 13 12 7 9 8 6 7 5 4
13 14 13 15 18 21 22 25 24 24 24 23 23 24 20 19 15 14 15 12 11 13 15 14 10 9 9 9 9 8 8 5
16 16 14 16 21 24 24 27 27 26 26 25 22 23 16 13 15 12 12 13 13 14 14 11 11 11 10 8 6 5 4 6
24 18 20 19 15 23 24 23 26 27 28 24 23 21 21 16 17 15 12 12 11 13 13 14 14 12 11 9 7 8 9 6
7 13 22 18 22 19 21 23 24 23 26 24 21 23 21 18 15 16 16 14 14 15 14 14 14 14 12 12 9 9 11 6
16 10 9 11 14 12 20 19 20 17 18 21 20 18 17 13 15 16 16 14 15 16 16 14 14 15 15 13 11 11 11 9
11 10 10 9 9 10 17 18 18 18 15 18 19 17 13 14 14 14 15 17 16 16 16 15 13 14 13 15 13 11 13 12
5 7 8 8 8 9 10 12 13 11 12 15 16 16 15 15 16 17 16 17 16 15 16 17 17 15 13 13 14 13 11 11
8 8 8 8 8 6 7 7 7 7 8 9 14 17 17 16 17 17 17 15 16 15 14 16 15 14 14 14 13 13 11 10
8 7 7 8 9 9 9 8 7 6 7 8 10 12 14 16 16 16 16 16 15 17 17 15 16 14 11 14 14 13 13 12
9 5 8 7 8 8 8 7 7 8 8 6 7 12 13 15 16 16 16 15 14 15 15 16 16 12 16 13 14 13 14 13
13 6 3 7 7 10 8 8 8 7 7 5 6 8 12 14 16 18 17 18 17 15 15 15 14 11 20 21 18 11 12 12
15 10 4 2 6 8 10 9 8 8 7 9 4 9 11 14 17 17 17 16 18 16 16 14 15 15 23 22 19 12 11 11
Wind_Direction
204 188 182 170 170 174 176 169 174 180 184 176 180 173 177 168 164 165 167 174 177 164 178 175 176 155 180 170 144 169 171 193
202 172 186 172 172 175 178 173 172 171 178 187 180 189 169 177 170 165 176 176 173 175 189 180 178 165 180 181 164 180 196 125
195 192 179 170 176 179 180 181 172 179 179 190 188 178 177 169 173 173 180 184 194 186 188 187 176 166 179 183 168 123 144 154
203 191 188 179 178 181 181 181 179 181 182 174 161 141 131 165 189 193 185 187 192 199 189 177 178 174 185 178 166 154 158 123
204 196 194 180 183 183 180 179 182 182 175 177 184 191 187 202 198 184 189 188 190 194 188 181 175 179 175 171 171 154 133 161
195 200 191 189 182 182 181 180 181 176 180 181 183 194 206 189 189 186 188 187 190 188 183 180 183 187 176 163 157 160 160 152
221 196 174 188 177 175 178 178 181 180 180 184 185 195 197 190 186 185 185 181 186 185 178 186 194 178 168 159 150 146 145 124
215 201 185 175 170 175 179 179 181 184 184 188 189 193 197 196 188 187 178 180 185 191 181 185 185 160 149 144 153 157 157 155
209 209 193 189 184 181 181 185 186 184 185 190 192 192 193 195 190 186 188 185 191 183 183 169 153 147 150 144 133 129 133 123
226 213 209 205 179 188 187 184 191 187 184 189 192 192 191 188 185 183 182 182 181 179 171 160 151 150 147 140 143 141 135 126
211 225 224 217 205 186 191 191 189 189 187 190 192 191 192 185 170 179 181 174 166 162 161 161 154 152 145 140 137 144 130 123
257 212 204 193 204 178 189 189 193 193 184 189 192 195 193 168 171 173 173 163 164 165 166 159 157 151 147 143 142 139 127 120
218 187 170 175 161 158 176 183 187 191 182 179 188 183 174 167 171 172 162 168 169 169 160 153 158 148 155 147 145 140 140 135
189 146 136 129 126 153 160 172 179 176 166 175 177 172 174 169 166 162 168 167 165 167 158 156 158 153 153 148 143 139 141 140
116 99 99 81 74 114 122 123 139 141 144 155 171 175 175 169 161 163 162 166 162 162 163 152 150 153 150 145 142 137 139 135
64 72 81 85 82 81 74 69 70 81 117 140 152 154 155 155 153 158 156 157 162 157 153 153 148 150 156 148 145 143 135 123
5 73 104 95 106 108 100 84 74 70 69 83 126 145 147 153 150 150 150 154 151 153 157 153 150 150 145 141 141 141 135 130
354 14 145 121 126 132 132 131 123 111 109 100 141 149 150 152 156 150 149 149 149 153 155 147 148 142 140 135 134 137 133 129
343 338 347 156 154 123 128 132 130 127 136 138 147 155 158 154 154 155 154 156 155 153 158 152 146 148 138 131 126 128 121 123